Regional Weather Roundup
Issued by NWS

Home | Current Version | Previous Version | Graphics & Text | Print | Product List | Glossary On
Versions: 1 2 3 4 5 6 7 8 9 10 11 12 13 14 15 16 17 18 19 20 21 22 23 24 25 26 27 28 29 30 31 32 33 34 35 36 37 38 39 40 41 42 43 44 45 46 47 48 49 50
000
ASUS45 KCYS 180710
RWRWY

WYOMING REGIONAL WEATHER ROUNDUP
NATIONAL WEATHER SERVICE CHEYENNE WY
100 AM MDT SAT APR 18 2015

NOTE:  "FAIR" INDICATES FEW OR NO CLOUDS BELOW 12,000 FEET
WITH NO SIGNIFICANT WEATHER AND/OR OBSTRUCTIONS TO VISIBILITY.

WYZ001-180800-
YELLOWSTONE NATIONAL PARK

CITY           SKY/WX    TMP DP  RH WIND       PRES   REMARKS
LK YELLOWSTONE   N/A     27  21  78 CALM      30.16R
W YELLOWSTONE  NOT AVBL

$$
WYZ002>013-054>058-071-098>099-180800-
NORTHERN WYOMING

CITY           SKY/WX    TMP DP  RH WIND       PRES   REMARKS
JACKSON        FAIR      37  25  60 N12       30.09R WCI  30
CODY           FAIR      45  30  57 SW9       30.05F
GREYBULL       FAIR      45  27  49 E5        30.04S
WORLAND        FAIR      41  34  76 S9        30.04F
SHERIDAN       FAIR      36  30  79 VRB3      30.02F
BUFFALO        FAIR      45  36  70 S13       30.06F
GILLETTE       FAIR      44  39  82 SW9       30.07F
HULETT         PTSUNNY   43  39  87 SW5       30.08S
NEWCASTLE      PTSUNNY   43  43 100 N5        30.08F

$$
WYZ014>020-022>026-101>103-180800-
CENTRAL WYOMING

CITY           SKY/WX    TMP DP  RH WIND       PRES   REMARKS
BIG PINEY      FAIR      27  24  89 E3        30.10F
PINEDALE       FAIR      28  25  86 W5        30.11F WCI  23
DUBOIS         FAIR      32  23  69 CALM      30.12F
LANDER         MOCLDY    39  35  86 NW6       30.09F WCI  35
RIVERTON       FAIR      39  34  82 N6        30.11F WCI  35
CASPER         CLOUDY    38  36  92 SE3       30.08F FOG
DOUGLAS        CLOUDY    37  37 100 NW6       30.09S WCI  32

$$
WYZ021-027>030-104>119-180800-
SOUTHERN WYOMING

CITY           SKY/WX    TMP DP  RH WIND       PRES   REMARKS
EVANSTON       FAIR      35  29  78 E3        30.12S
FORT BRIDGER   SUNNY     34  34 100 S8        30.14F WCI  27
ROCK SPRINGS   CLOUDY    36  34  92 NE12      30.10R WCI  28
DIXON          PTSUNNY   32  28  85 CALM      30.06R
RAWLINS        CLOUDY    32  31  96 NE9       30.08R WCI  24
SARATOGA       CLOUDY    30  30 100 S3        30.07S FOG
LARAMIE        CLOUDY    26  24  92 N6        30.03F FOG     WCI  19
CHEYENNE       FOG       33  32  96 NW6       30.03F VSB 3/4 WCI  28
TORRINGTON     LGT RAIN  42  41  96 NW5       30.04S
PINE BLUFFS    LGT RAIN  36  36 100 NW6       30.04F WCI  31

$$


USA.gov is the U.S. government's official web portal to all federal, state and local government web resources and services.